When you browse on this site, cookies collect data to enhance your experience and personalize the content and advertising you see.
Visit our Privacy Policy to learn more. By continuing to use the site, you agree to this use of cookies and data.
  • In Österreich
  • Länderverzeichnis
  • Für 7 Tage
  • Wassertemperatur
  • Satellitenkarten
  • Wetterkarte
  • News
  • Widgets
  • user-avatar
    Anmelden

    Stündliche Wetter Kavasaki

    Heute, 19 Februar, Dienstag

    Zeit Temperatur Niederschläge Wind Luftdruck Luftfeuchtigkeit
    00:00 +7°C° 0 mm 1 m/S 764 mmHg 55%
    01:00 +7°C° 0 mm 1 m/S 763 mmHg 55%
    02:00 +6°C° 0 mm 1 m/S 763 mmHg 54%
    03:00 +6°C° 0 mm 1 m/S 763 mmHg 53%
    04:00 +7°C° 0 mm 1 m/S 763 mmHg 52%
    05:00 +7°C° 0 mm 1 m/S 763 mmHg 51%
    06:00 +7°C° 0 mm 1 m/S 763 mmHg 50%
    07:00 +7°C° 0.2 mm 1 m/S 762 mmHg 51%
    08:00 +8°C° 0.2 mm 1 m/S 762 mmHg 53%
    09:00 +7°C° 0 mm 2 m/S 762 mmHg 55%
    10:00 +8°C° 2 mm 1 m/S 761 mmHg 64%
    11:00 +8°C° 2 mm 1 m/S 761 mmHg 73%
    12:00 +8°C° 2 mm 1 m/S 760 mmHg 83%
    13:00 +8°C° 3.1 mm 1 m/S 759 mmHg 86%
    14:00 +8°C° 3.1 mm 1 m/S 758 mmHg 88%
    15:00 +7°C° 0 mm 2 m/S 756 mmHg 89%
    16:00 +7°C° 3.2 mm 2 m/S 756 mmHg 90%
    17:00 +7°C° 3.2 mm 2 m/S 755 mmHg 91%
    18:00 +9°C° 3.2 mm 1 m/S 755 mmHg 92%
    19:00 +9°C° 0.5 mm 1 m/S 754 mmHg 91%
    20:00 +9°C° 0.5 mm 1 m/S 754 mmHg 91%
    21:00 +8°C° 0.5 mm 2 m/S 754 mmHg 91%
    22:00 +10°C° 0.1 mm 1 m/S 754 mmHg 91%
    23:00 +10°C° 0.1 mm 1 m/S 755 mmHg 92%

    Morgen, 20 Februar, Mittwoch

    Zeit Temperatur Niederschläge Wind Luftdruck Luftfeuchtigkeit
    00:00 +10°C° 0.1 mm 1 m/S 755 mmHg 92%
    01:00 +10°C° 0 mm 1 m/S 755 mmHg 93%
    02:00 +10°C° 0 mm 1 m/S 755 mmHg 93%
    03:00 +10°C° 0 mm 1 m/S 755 mmHg 94%
    04:00 +10°C° 0 mm 1 m/S 755 mmHg 94%
    05:00 +9°C° 0 mm 1 m/S 755 mmHg 94%
    06:00 +9°C° 0 mm 1 m/S 755 mmHg 94%
    07:00 +10°C° 0 mm 1 m/S 756 mmHg 87%
    08:00 +12°C° 0 mm 1 m/S 756 mmHg 81%
    09:00 +13°C° 0 mm 2 m/S 756 mmHg 75%
    10:00 +14°C° 0 mm 2 m/S 756 mmHg 68%
    11:00 +13°C° 0 mm 3 m/S 756 mmHg 62%
    12:00 +14°C° 0 mm 4 m/S 756 mmHg 56%
    13:00 +14°C° 0 mm 4 m/S 756 mmHg 54%
    14:00 +14°C° 0 mm 5 m/S 755 mmHg 53%
    15:00 +14°C° 0 mm 5 m/S 755 mmHg 52%
    16:00 +12°C° 0 mm 5 m/S 756 mmHg 55%
    17:00 +11°C° 0 mm 4 m/S 756 mmHg 59%
    18:00 +10°C° 0 mm 4 m/S 757 mmHg 62%
    19:00 +8°C° 0 mm 4 m/S 757 mmHg 64%
    20:00 +9°C° 0 mm 3 m/S 758 mmHg 65%
    21:00 +9°C° 0 mm 3 m/S 758 mmHg 67%
    22:00 +8°C° 0 mm 3 m/S 759 mmHg 66%
    23:00 +7°C° 0 mm 4 m/S 759 mmHg 65%

    übermorgen, 21 Februar, Donnerstag

    Zeit Temperatur Niederschläge Wind Luftdruck Luftfeuchtigkeit
    00:00 +6°C° 0 mm 4 m/S 759 mmHg 64%
    01:00 +5°C° 0 mm 4 m/S 759 mmHg 64%
    02:00 +5°C° 0 mm 3 m/S 759 mmHg 64%
    03:00 +4°C° 0 mm 3 m/S 759 mmHg 64%
    04:00 +4°C° 0 mm 3 m/S 760 mmHg 64%
    05:00 +4°C° 0 mm 3 m/S 760 mmHg 64%
    06:00 +3°C° 0 mm 3 m/S 760 mmHg 65%
    07:00 +4°C° 0 mm 3 m/S 760 mmHg 60%
    08:00 +5°C° 0 mm 3 m/S 760 mmHg 56%
    09:00 +6°C° 0 mm 4 m/S 761 mmHg 51%
    10:00 +7°C° 0 mm 4 m/S 760 mmHg 48%
    11:00 +8°C° 0 mm 4 m/S 760 mmHg 45%
    12:00 +10°C° 0 mm 4 m/S 760 mmHg 41%
    13:00 +11°C° 0 mm 4 m/S 760 mmHg 42%
    14:00 +10°C° 0 mm 5 m/S 760 mmHg 42%
    15:00 +10°C° 0 mm 5 m/S 759 mmHg 43%
    16:00 +10°C° 0 mm 4 m/S 760 mmHg 47%
    17:00 +7°C° 0 mm 4 m/S 760 mmHg 51%
    18:00 +6°C° 0 mm 4 m/S 761 mmHg 55%
    19:00 +5°C° 0 mm 4 m/S 761 mmHg 57%
    20:00 +5°C° 0 mm 3 m/S 762 mmHg 60%
    21:00 +4°C° 0 mm 3 m/S 762 mmHg 62%
    22:00 +3°C° 0 mm 3 m/S 762 mmHg 63%
    23:00 +4°C° 0 mm 2 m/S 762 mmHg 64%

    22 Februar, Freitag

    Zeit Temperatur Niederschläge Wind Luftdruck Luftfeuchtigkeit
    00:00 +4°C° 0 mm 2 m/S 762 mmHg 65%
    01:00 +4°C° 0 mm 2 m/S 762 mmHg 64%
    02:00 +3°C° 0 mm 2 m/S 762 mmHg 64%
    03:00 +3°C° 0 mm 2 m/S 762 mmHg 64%
    04:00 +4°C° 0 mm 1 m/S 762 mmHg 62%
    05:00 +4°C° 0 mm 1 m/S 762 mmHg 61%
    06:00 +4°C° 0 mm 1 m/S 761 mmHg 60%
    07:00 +5°C° 0 mm 1 m/S 762 mmHg 53%
    08:00 +7°C° 0 mm 1 m/S 762 mmHg 47%
    09:00 +9°C° 0 mm 1 m/S 762 mmHg 41%
    10:00 +10°C° 0 mm 1 m/S 761 mmHg 41%
    11:00 +12°C° 0 mm 1 m/S 760 mmHg 41%
    12:00 +13°C° 0 mm 1 m/S 760 mmHg 42%
    13:00 +14°C° 0 mm 1 m/S 759 mmHg 43%
    14:00 +14°C° 0 mm 1 m/S 758 mmHg 44%
    15:00 +14°C° 0 mm 1 m/S 757 mmHg 46%
    16:00 +13°C° 0 mm 1 m/S 757 mmHg 49%
    17:00 +11°C° 0 mm 0 m/S 757 mmHg 52%
    18:00 +11°C° 0 mm 0 m/S 757 mmHg 55%
    19:00 +10°C° 0 mm 0 m/S 757 mmHg 57%
    20:00 +10°C° 0 mm 0 m/S 757 mmHg 58%
    21:00 +11°C° 0 mm 1 m/S 757 mmHg 59%
    22:00 +10°C° 0.4 mm 1 m/S 756 mmHg 65%
    23:00 +9°C° 0.4 mm 0 m/S 756 mmHg 71%

    23 Februar, Samstag

    Zeit Temperatur Niederschläge Wind Luftdruck Luftfeuchtigkeit
    00:00 +8°C° 0.4 mm 0 m/S 755 mmHg 77%
    01:00 +9°C° 1.2 mm 1 m/S 754 mmHg 79%
    02:00 +8°C° 1.2 mm 1 m/S 753 mmHg 82%
    03:00 +7°C° 1.2 mm 2 m/S 753 mmHg 84%
    04:00 +7°C° 1 mm 2 m/S 752 mmHg 84%
    05:00 +7°C° 1 mm 2 m/S 752 mmHg 83%
    06:00 +7°C° 1 mm 2 m/S 751 mmHg 82%
    07:00 +8°C° 0.1 mm 2 m/S 751 mmHg 76%
    08:00 +8°C° 0.1 mm 3 m/S 751 mmHg 70%
    09:00 +9°C° 0.1 mm 3 m/S 752 mmHg 64%
    10:00 +10°C° 0 mm 4 m/S 752 mmHg 58%
    11:00 +12°C° 0 mm 4 m/S 752 mmHg 52%
    12:00 +13°C° 0 mm 4 m/S 751 mmHg 46%
    13:00 +13°C° 0 mm 5 m/S 752 mmHg 44%
    14:00 +12°C° 0 mm 5 m/S 752 mmHg 43%
    15:00 +11°C° 0 mm 6 m/S 752 mmHg 41%
    16:00 +10°C° 0 mm 5 m/S 752 mmHg 44%
    17:00 +9°C° 0 mm 5 m/S 753 mmHg 47%
    18:00 +7°C° 0 mm 5 m/S 754 mmHg 49%
    19:00 +6°C° 0 mm 4 m/S 755 mmHg 52%
    20:00 +5°C° 0 mm 4 m/S 756 mmHg 54%
    21:00 +5°C° 0 mm 4 m/S 757 mmHg 56%
    22:00 +4°C° 0 mm 3 m/S 757 mmHg 58%
    23:00 +4°C° 0 mm 3 m/S 758 mmHg 59%

    24 Februar, Sonntag

    Zeit Temperatur Niederschläge Wind Luftdruck Luftfeuchtigkeit
    00:00 +3°C° 0 mm 3 m/S 758 mmHg 60%
    01:00 +3°C° 0 mm 3 m/S 758 mmHg 61%
    02:00 +2°C° 0 mm 3 m/S 759 mmHg 61%
    03:00 +2°C° 0 mm 3 m/S 759 mmHg 61%
    04:00 +2°C° 0 mm 3 m/S 760 mmHg 61%
    05:00 +2°C° 0 mm 2 m/S 760 mmHg 61%
    06:00 +2°C° 0 mm 2 m/S 760 mmHg 62%
    07:00 +3°C° 0 mm 2 m/S 761 mmHg 56%
    08:00 +5°C° 0 mm 2 m/S 761 mmHg 50%
    09:00 +6°C° 0 mm 2 m/S 762 mmHg 44%
    10:00 +9°C° 0 mm 1 m/S 761 mmHg 39%
    11:00 +11°C° 0 mm 1 m/S 761 mmHg 33%
    12:00 +12°C° 0 mm 1 m/S 761 mmHg 28%
    13:00 +13°C° 0 mm 1 m/S 761 mmHg 27%
    14:00 +13°C° 0 mm 1 m/S 760 mmHg 26%
    15:00 +13°C° 0 mm 1 m/S 760 mmHg 25%
    16:00 +12°C° 0 mm 1 m/S 760 mmHg 29%
    17:00 +11°C° 0 mm 1 m/S 761 mmHg 33%
    18:00 +10°C° 0 mm 1 m/S 761 mmHg 37%
    19:00 +9°C° 0 mm 1 m/S 761 mmHg 41%
    20:00 +8°C° 0 mm 1 m/S 762 mmHg 45%
    21:00 +8°C° 0 mm 1 m/S 762 mmHg 49%
    22:00 +7°C° 0 mm 1 m/S 762 mmHg 50%
    23:00 +7°C° 0 mm 1 m/S 762 mmHg 51%
    Mehr zeigen